sat.trackr.live / text

‹ back to catalog

STARLINK-32781

NORAD 62848 · 2025-019V

PAYLOAD ACTIVE UNKNOWN

§ Identity

Operator
Country
US
Launch date
2025-01-27
Launch site
AFETR
Launch vehicle
Mass (kg)
RCS (m²)

Purposes: comms

External: N2YO · Heavens-Above · Gunter

§ Orbital elements

Epoch: 2026-09-21T17:41:46.189824Z

Period
94.27 min
Inclination
43.0026°
Eccentricity
0.0000736
Mean motion
15.27588047 rev/d
Perigee alt
482.5 km
Apogee alt
483.5 km
Semi-major
6,861.2 km
B*
2.2582e-4
RAAN
61.8297°
Arg perigee
287.7364°
Mean anomaly
72.3407°
Rev number
9,223

§ Raw data

STARLINK-327811 62848U 25019V   26264.73734016  .00005959  00000+0  22582-3 0  99952 62848  43.0026  61.8297 0000736 287.7364  72.3407 15.27588047 92237

JSON: /api/v1/satellites/62848 · /tle

For live sub-satellite position, see the globe view (requires WebGL).

§ Visibility from observer

Set your observer location to see the next 7 days of passes ≥ 10°. The values pass through the URL so the page stays shareable.

No JS? Fill the form by hand. The geolocation button needs JavaScript.